Content
SEND FEEDBACK

Daily
Averages
Monthly
Summary
United States of America

CHICAGO, ILLINOIS


Home > North America > United States > Illinois
Elevation: 674 feet     Latitude: 41 59N     Longitude: 087 54W

WEATHER
 
SELECT A DAY
Number of Records: 194,883;   Date Range: 7/8/95 - 7/29/14
 
SHARE

PRINT THIS DATA

[ ← Previous Day ]
WEATHER ALMANAC - MAY 6, 2013
[ Next Day → ]
[ °C ]   °F
Weather ElementAverageHighLow
Temperature57.4 °F66.9 °F (12:52 pm)50 °F (11:52 pm)
Dewpoint38.7 °F42.1 °F (11:52 am)35.1 °F (5:52 pm)
Humidity50.8 %66 % (1:52 am)35 % (5:52 pm)
Barometer30.04 in30.07 in (9:52 am)30.01 in (3:52 am)
Wind Speed5.6 mph13.8 mph (2:52 pm)
Weather ElementAverage
Visibility10 mi
Wind DirectionENE (84.3 °)

Weather ElementTotal
Precipitation---
Heating Degree Days6.6 (Base 65)
Growing Degree Days8.5 (Base 50)
Averaged from 23 records on May 6, 2013
WEATHER CONDITIONS BREAKOUT
WIND DIRECTION BREAKOUT
WEATHER BY HOUR - MAY 6, 2013
[ °C ]   °F
Local TimeTemperatureDewpointHumidityBarometerVisibilityWind DirectionWind SpeedGust SpeedPrecipitationEventsConditions
1:52 AM51.1 °F39.9 °F66 %30.03 in10.0 miCalmOvercast
2:52 AM52.0 °F39.0 °F61 %30.02 in10.0 miNorth (360°)3.5 mphOvercast
3:52 AM52.0 °F39.9 °F63 %30.01 in10.0 miNorth (360°)3.5 mphOvercast
4:52 AM53.1 °F39.0 °F59 %30.02 in10.0 miCalmOvercast
5:52 AM52.0 °F39.9 °F63 %30.03 in10.0 miNorth (360°)3.5 mphOvercast
6:52 AM53.1 °F41.0 °F64 %30.05 in10.0 miNNW (340°)3.5 mphOvercast
7:52 AM54.0 °F39.9 °F59 %30.06 in10.0 miNNE (30°)6.9 mphOvercast
8:52 AM57.0 °F39.9 °F53 %30.06 in10.0 miNE (40°)5.8 mphMostly Cloudy
9:52 AM59.0 °F37.9 °F46 %30.07 in10.0 miNNE (30°)8.1 mphOvercast
10:52 AM61.0 °F39.9 °F46 %30.06 in10.0 miNE (50°)8.1 mphMostly Cloudy
11:52 AM64.9 °F42.1 °F43 %30.05 in10.0 miNE (50°)6.9 mphClear
12:52 PM66.9 °F41.0 °F39 %30.03 in10.0 miNE (40°)11.5 mphClear
1:52 PM64.9 °F42.1 °F43 %30.04 in10.0 miENE (60°)9.2 mphClear
2:52 PM64.0 °F39.9 °F41 %30.03 in10.0 miNE (40°)13.8 mphClear
3:52 PM64.9 °F37.9 °F37 %30.02 in10.0 miNE (40°)8.1 mphClear
4:52 PM64.9 °F37.0 °F36 %30.01 in10.0 miENE (60°)9.2 mphClear
5:52 PM63.0 °F35.1 °F35 %30.01 in10.0 miNE (50°)10.4 mphClear
6:52 PM57.9 °F35.1 °F42 %30.02 in10.0 miNNE (20°)8.1 mphClear
7:52 PM55.0 °F36.0 °F49 %30.03 in10.0 miVariable4.6 mphClear
8:52 PM54.0 °F36.0 °F51 %30.04 in10.0 miNorth (10°)4.6 mphClear
9:52 PM54.0 °F36.0 °F51 %30.05 in10.0 miCalmClear
10:52 PM51.1 °F36.0 °F56 %30.04 in10.0 miCalmClear
11:52 PM50.0 °F39.0 °F66 %30.04 in10.0 miCalmClear
Hourly data recorded from KPWK, located miles away from Chicago, Illinois







STORIES FROM OUR PARTNERS